Погода в Кисляках

Россия / Омская область     55°20′41″N   70°37′38″E
темп.,
°C
ветер,
м/с
пор.,
м/с
влажн.,
%
обл.,
%
осадки,
мм/ч
давл.,
гПа
погр.,
м
16 апреля, пт
пт1600:00+6зюз5128754 0.0 1020193
03:00+5зюз5128635 0.0 1018179
06:00+5зюз5128466 0.0 1017179
09:00+8з51081100 0.0 1017245
12:00+13ссз6880100 0.0 1018870
15:00+8с7979100 0.1 1020792
18:00+8св58675 0.1 10221198
21:00+5с410630 0.0 1024229
17 апреля, сб
сб1700:00+2св510795 0.0 1025389
03:000св36865 0.0 1026191
06:00−1всв24875 0.0 1027127
09:00+1всв21655 0.0 1028428
12:00+4з12515 0.0 10271027
15:00+7зюз34455 0.0 10251524
18:00+8з564536 0.0 10221683
21:00+5зюз33645 0.0 102135
18 апреля, вс
вс1800:00+4юз4972100 0.0 1018152
03:00+3зюз5127494 0.0 1015271
06:00+3зюз51377100 0.0 1013299
09:00+5з71375100 0.0 1010973
12:00+5зсз91476100 0.2 10101508
15:00+4сз121554100 0.1 10132143
18:00−1с101462100 0.3 10201650
21:00−3с813525 0.0 10251420
19 апреля, пн
пн1900:00−4с6105264 0.0 10281409
03:00−6с694932 0.0 10301276
06:00−7с685081 0.0 10331261
09:00−6с674239 0.0 10351365
12:00−4с6735100 0.0 10351757
15:00−1с5632100 0.0 10352038
18:00−1с5631100 0.0 10352077
21:00−3с224646 0.0 103637
20 апреля, вт
вт2000:00−4ссз22495 0.0 103626
03:00−4зсз23505 0.0 103675
06:00−4зсз25535 0.0 1036127
09:00−1зсз57385 0.0 1036968
12:00+3зсз57328 0.0 10351490
15:00+5зсз783363 0.0 10321757
18:00+5зсз710425 0.0 10311637
21:00+1з5116070 0.0 1031204